Weather History for PADU - November, 2011

Change the Weather History Date:

Thursday, November 3, 2011

  Actual Average Record
Temperature  
Mean Temperature 48 °F -  
Max Temperature 54 °F 44 °F 54 °F (2011)
Min Temperature 44 °F 34 °F 30 °F (1988)
Degree Days  
Heating Degree Days 16    
Moisture  
Dew Point 38 °F    
Average Humidity 73    
Maximum Humidity 83    
Minimum Humidity 60    
Precipitation  
Precipitation 0.11 in - - ()
Sea Level Pressure  
Sea Level Pressure 29.33 in    
Wind  
Wind Speed 22 mph (SW)    
Max Wind Speed 38 mph    
Max Gust Speed 58 mph    
Visibility 7 miles    
Events Rain    
Averages and records for this station are not official NWS values.
T = Trace of Precipitation, MM = Missing Value Source: NWS Daily Summary

Daily Weather History Graph

Daily Weather History Graph

Search for Another Location

Airport or City:

Trip Planner

Search our weather history database for the weather conditions in past years. The results will help you decide how hot, cold, wet, or windy it might be!

Date:

Astronomy

Nov. 03, 2011 Rise Set
Actual Time 10:10 AM AKDT 7:28 PM AKDT
Civil Twilight 9:32 AM AKDT 8:05 PM AKDT
Nautical Twilight 8:50 AM AKDT 8:47 PM AKDT
Astronomical Twilight 8:09 AM AKDT 9:28 PM AKDT
Moon 4:49 PM AKDT (11/3) 2:38 AM AKDT (11/3)
Length of Visible Light 10h 33m
Length of Day
9h 17m
First Quarter, 61% of the Moon is Illuminated
Nov 3
First Quarter
Nov 10
Full
Nov 18
Last Quarter
Nov 24
New
Dec 2
First Quarter

Hourly Weather History & Observations

Time (AKDT) Temp. Windchill Dew Point Humidity Pressure Visibility Wind Dir Wind Speed Gust Speed Precip Events Conditions
12:58 AM 53.1 °F - 45.0 °F 74% 29.40 in 10.0 mi South 10.4 mph 26.5 mph 0.01 in Rain Light Rain
1:58 AM 52.0 °F - 45.0 °F 77% 29.34 in 7.0 mi SSW 20.7 mph 31.1 mph 0.00 in Rain Light Rain
2:58 AM 53.1 °F - 44.1 °F 71% 29.30 in 10.0 mi SSW 23.0 mph 27.6 mph 0.00 in   Mostly Cloudy
3:58 AM 53.1 °F - 42.1 °F 66% 29.26 in 10.0 mi SSW 21.9 mph 29.9 mph N/A   Clear
4:58 AM 52.0 °F - 41.0 °F 66% 29.23 in 10.0 mi SSW 20.7 mph 32.2 mph N/A   Clear
5:58 AM 51.1 °F - 39.9 °F 66% 29.20 in 10.0 mi SW 18.4 mph 27.6 mph N/A   Clear
6:58 AM 51.1 °F - 39.9 °F 66% 29.18 in 10.0 mi SSW 23.0 mph 32.2 mph N/A   Overcast
7:50 AM 48.2 °F - 41.0 °F 76% 29.14 in 9.0 mi SW 25.3 mph 28.8 mph 0.00 in Rain Light Rain
7:58 AM 48.0 °F - 41.0 °F 77% 29.16 in 10.0 mi SSW 24.2 mph 32.2 mph 0.00 in Rain Light Rain
8:58 AM 48.0 °F - 41.0 °F 77% 29.15 in 10.0 mi SSW 21.9 mph 28.8 mph 0.00 in   Overcast
9:12 AM 48.2 °F - 41.0 °F 76% 29.14 in 10.0 mi SSW 18.4 mph - N/A   Overcast
9:58 AM 46.0 °F 39.0 °F 41.0 °F 83% 29.18 in 5.0 mi SSW 17.3 mph - 0.00 in Rain Light Rain
10:38 AM 46.4 °F 39.5 °F 41.0 °F 81% 29.16 in 4.0 mi SSW 17.3 mph 27.6 mph 0.00 in Rain Light Rain
10:44 AM 46.4 °F 39.2 °F 41.0 °F 81% 29.17 in 5.0 mi SSW 18.4 mph - 0.01 in Rain Light Rain
10:58 AM 46.0 °F 36.5 °F 39.0 °F 76% 29.18 in 6.0 mi SW 31.1 mph 42.6 mph 0.02 in Rain Light Rain
11:02 AM 46.4 °F 36.9 °F 39.2 °F 76% 29.17 in 5.0 mi SW 32.2 mph 43.7 mph 0.00 in Rain Light Rain
11:58 AM 46.0 °F 37.8 °F 39.0 °F 76% 29.24 in 4.0 mi SW 23.0 mph 35.7 mph 0.04 in Rain Light Rain
12:08 PM 46.4 °F 38.1 °F 39.2 °F 76% 29.22 in 2.5 mi WSW 24.2 mph 42.6 mph 0.00 in Rain Light Rain
12:22 PM 44.6 °F 34.7 °F 39.2 °F 81% 29.23 in 4.0 mi SW 29.9 mph 47.2 mph 0.01 in Rain Light Rain
12:35 PM 44.6 °F 35.5 °F 39.2 °F 81% 29.24 in 5.0 mi WSW 25.3 mph 55.2 mph 0.01 in Rain Light Rain
12:58 PM 45.0 °F 35.8 °F 37.9 °F 76% 29.29 in 7.0 mi West 26.5 mph 41.4 mph 0.01 in Rain Light Rain
1:27 PM 44.6 °F 34.7 °F 37.4 °F 76% 29.29 in 7.0 mi WSW 29.9 mph 57.5 mph 0.00 in Rain Light Rain
1:48 PM 44.6 °F 36.1 °F 37.4 °F 76% 29.29 in 4.0 mi WSW 21.9 mph 40.3 mph 0.00 in Rain Light Rain
1:58 PM 44.1 °F 35.4 °F 37.9 °F 79% 29.31 in 3.0 mi WSW 21.9 mph 33.4 mph 0.00 in Rain Light Rain
2:07 PM 44.6 °F 35.3 °F 37.4 °F 76% 29.29 in 5.0 mi SW 26.5 mph 43.7 mph 0.01 in Rain Light Rain
2:58 PM 44.1 °F 35.4 °F 37.0 °F 76% 29.34 in 5.0 mi SW 21.9 mph 35.7 mph 0.02 in Rain Light Rain
3:02 PM 44.6 °F 35.7 °F 37.4 °F 76% 29.33 in 3.0 mi WSW 24.2 mph 35.7 mph 0.00 in Rain Light Rain
3:27 PM 44.6 °F 35.3 °F 37.4 °F 76% 29.34 in 5.0 mi West 26.5 mph 42.6 mph 0.01 in Rain Light Rain
3:58 PM 45.0 °F 37.1 °F 37.9 °F 76% 29.37 in 6.0 mi SW 19.6 mph 40.3 mph 0.01 in Rain Light Rain
4:44 PM 44.6 °F 35.1 °F 35.6 °F 71% 29.39 in 10.0 mi WSW 27.6 mph 39.1 mph 0.00 in Rain Light Rain
4:58 PM 46.0 °F 38.8 °F 36.0 °F 68% 29.42 in 10.0 mi WSW 18.4 mph 42.6 mph 0.00 in Rain Light Rain
5:58 PM 46.0 °F 36.9 °F 36.0 °F 68% 29.47 in 9.0 mi West 28.8 mph 41.4 mph 0.00 in   Overcast
6:49 PM 44.6 °F 33.6 °F 33.8 °F 66% 29.50 in 10.0 mi West 38.0 mph 48.3 mph 0.00 in Rain Light Rain
6:58 PM 45.0 °F 35.2 °F 34.0 °F 65% 29.53 in 10.0 mi West 29.9 mph 49.5 mph 0.00 in Rain Light Rain
7:58 PM 44.1 °F 32.9 °F 34.0 °F 68% 29.60 in 10.0 mi WNW 38.0 mph 46.0 mph 0.00 in   Mostly Cloudy
8:58 PM 44.1 °F 32.9 °F 33.1 °F 65% 29.66 in 10.0 mi WNW 38.0 mph 46.0 mph 0.00 in Rain Light Rain
9:58 PM 44.1 °F 33.0 °F 32.0 °F 63% 29.71 in 10.0 mi West 36.8 mph 49.5 mph 0.00 in   Mostly Cloudy
10:58 PM 44.1 °F 33.3 °F 30.9 °F 60% 29.76 in 10.0 mi West 34.5 mph 47.2 mph N/A   Overcast
11:58 PM 44.1 °F 35.2 °F 33.1 °F 65% 29.83 in 10.0 mi WNW 23.0 mph 38.0 mph 0.00 in Rain Light Rain